TimeEDT,TemperatureF,Dew PointF,Humidity,Sea Level PressureIn,VisibilityMPH,Wind Direction,Wind SpeedMPH,Gust SpeedMPH,PrecipitationIn,Events,Conditions,WindDirDegrees,DateUTC
12:36 AM,44.6,39.2,81,29.87,10.0,NNW,9.2,-,N/A,,Overcast,340,2013-05-11 04:36:00
12:53 AM,44.1,39.0,82,29.87,10.0,NNW,9.2,-,N/A,,Overcast,340,2013-05-11 04:53:00
1:53 AM,44.1,39.9,85,29.86,10.0,North,8.1,-,N/A,,Overcast,350,2013-05-11 05:53:00
2:53 AM,44.1,41.0,89,29.87,10.0,NW,8.1,-,N/A,,Overcast,320,2013-05-11 06:53:00
3:53 AM,44.1,39.9,85,29.88,10.0,NNW,6.9,-,N/A,,Overcast,330,2013-05-11 07:53:00
4:53 AM,44.1,39.9,85,29.88,10.0,NNW,9.2,-,N/A,,Overcast,330,2013-05-11 08:53:00
5:53 AM,44.1,39.9,85,29.88,10.0,NNW,10.4,-,N/A,,Overcast,340,2013-05-11 09:53:00
6:53 AM,44.1,39.9,85,29.88,10.0,NW,4.6,-,N/A,,Overcast,310,2013-05-11 10:53:00
7:53 AM,44.1,39.9,85,29.88,10.0,NW,6.9,-,N/A,,Overcast,310,2013-05-11 11:53:00
8:53 AM,45.0,41.0,86,29.87,10.0,NW,9.2,-,N/A,,Overcast,310,2013-05-11 12:53:00
9:53 AM,46.9,42.1,83,29.88,10.0,WNW,6.9,-,N/A,,Overcast,300,2013-05-11 13:53:00
10:53 AM,48.0,42.1,80,29.87,10.0,West,6.9,-,N/A,,Overcast,280,2013-05-11 14:53:00
11:01 AM,48.2,42.8,82,29.85,10.0,Variable,5.8,-,N/A,,Overcast,0,2013-05-11 15:01:00
11:53 AM,50.0,43.0,77,29.86,10.0,West,5.8,-,N/A,,Overcast,260,2013-05-11 15:53:00
12:36 PM,50.0,44.6,82,29.84,10.0,West,8.1,-,N/A,,Overcast,260,2013-05-11 16:36:00
12:53 PM,50.0,43.0,77,29.85,10.0,WSW,9.2,-,N/A,,Overcast,250,2013-05-11 16:53:00
1:53 PM,54.0,44.1,69,29.82,10.0,WSW,5.8,-,N/A,,Mostly Cloudy,240,2013-05-11 17:53:00
2:12 PM,55.4,44.6,67,29.80,10.0,SW,6.9,-,N/A,,Scattered Clouds,220,2013-05-11 18:12:00
2:53 PM,59.0,44.1,58,29.80,10.0,Variable,5.8,-,N/A,,Partly Cloudy,0,2013-05-11 18:53:00
3:53 PM,61.0,44.1,54,29.76,10.0,SSW,10.4,-,N/A,,Mostly Cloudy,210,2013-05-11 19:53:00
4:53 PM,61.0,43.0,52,29.75,10.0,SW,15.0,23.0,N/A,,Partly Cloudy,220,2013-05-11 20:53:00
5:53 PM,55.0,45.0,69,29.77,10.0,West,11.5,-,0.00,,Overcast,260,2013-05-11 21:53:00
6:17 PM,53.6,44.6,72,29.77,9.0,West,11.5,20.7,0.00,Rain,Light Rain,270,2013-05-11 22:17:00
6:51 PM,51.8,46.4,82,29.79,8.0,NW,15.0,26.5,0.02,Rain,Light Rain,310,2013-05-11 22:51:00
6:53 PM,50.0,46.9,89,29.80,9.0,WNW,15.0,-,0.02,Rain,Light Rain,300,2013-05-11 22:53:00
7:08 PM,48.2,44.6,87,29.80,10.0,WNW,20.7,27.6,0.00,,Overcast,300,2013-05-11 23:08:00
7:53 PM,46.9,43.0,86,29.85,10.0,NW,20.7,28.8,0.00,,Overcast,320,2013-05-11 23:53:00
8:09 PM,46.4,42.8,87,29.85,10.0,NW,18.4,31.1,N/A,,Overcast,310,2013-05-12 00:09:00
8:53 PM,43.0,33.1,68,29.89,10.0,NW,11.5,26.5,N/A,,Scattered Clouds,320,2013-05-12 00:53:00
9:53 PM,41.0,30.9,67,29.91,10.0,NW,11.5,-,N/A,,Clear,320,2013-05-12 01:53:00
10:53 PM,37.9,32.0,79,29.92,10.0,WNW,5.8,-,N/A,,Clear,290,2013-05-12 02:53:00
11:53 PM,35.1,30.9,85,29.92,10.0,WSW,4.6,-,N/A,,Clear,240,2013-05-12 03:53:00